[[{"header":{"parameterUnit":"m.s-1","parameterCategory":1,"la1":30.2991,"la2":30.254,"lo1":-89.0895,"lo2":-89.0444,"dy":0.0017,"dx":0.0017,"nx":28,"ny":28,"refTime":"2024-03-16T03:00:00:Z","depth":0,"parameterNumber":2,"parameterNumberName":"U-component_of_WINDS"},"data":[0,0,0,0,0,0,0,0,0,0,0,0,0,0,0,0,0,0,0,0,0,0,0,0,0,0,0,0,0,0,0,0,0,0,0,0,0,0,0,0,0,0,0,0,0,0,0,0,0,0,0,0,0,0,0,0,0,0,0.3166,0.3167,0,0.3227,0.3228,0.3228,0.3279,0.3279,0.328,0.328,0.3343,0.3344,0.3345,0,0,0,0,0,0,0,0,0,0,0,0,0,0.3093,0.3094,0.3166,0.3167,0.3168,0.3227,0.3228,0.3229,0.3279,0.3279,0.328,0.3281,0.3342,0.3344,0.3345,0,0,0,0,0,0,0,0,0,0,0,0,0,0.3136,0.3094,0.3166,0.32,0.3204,0.3227,0.3228,0.3229,0.3279,0.3279,0.328,0.3281,0.3342,0.3344,0.3345,0.334,0,0,0.3351,0.3352,0,0,0,0,0,0,0,0,0.3133,0.3139,0.3194,0.3198,0.3202,0.3246,0.3225,0.3266,0.3278,0.325,0.328,0.3281,0.331,0.3314,0.3324,0.3343,0.3346,0.3351,0.3352,0.3353,0.3353,0,0,0,0,0,0,0,0.313,0.3136,0.319,0.3195,0.32,0.3212,0.3219,0.3233,0.3275,0.3253,0.3256,0.3263,0.3312,0.3322,0.3326,0.3347,0.3351,0.3352,0.3354,0.3354,0.3361,0.336,0,0,0,0,0,0,0.3122,0.3133,0.3189,0.3192,0.3169,0.3212,0.322,0.3231,0.3275,0.3282,0.3262,0.3265,0.3319,0.3324,0.3328,0.3323,0.3353,0.3354,0.3355,0.3362,0.3361,0.336,0,0,0,0,0,0,0.312,0.3127,0.3186,0.3164,0.3172,0.3213,0.3225,0.3232,0.3242,0.3282,0.329,0.3265,0.332,0.3326,0.3336,0.3326,0.3355,0.3357,0.3363,0.3362,0.3361,0.3313,0,0,0,0,0,0,0.3118,0.3126,0.3125,0.3163,0.3173,0.3193,0.3224,0.3232,0.3245,0.3249,0.3286,0.3293,0.3321,0.3333,0.3338,0.3329,0.3358,0.3364,0.3363,0.3361,0.3316,0.331,0.3305,0,0,0,0,0,0.3115,0.311,0.3124,0.3131,0.3173,0.3192,0.3198,0.323,0.3244,0.3242,0.3268,0.3292,0.3326,0.3334,0.334,0.3331,0.3365,0.3363,0.3361,0.3318,0.3311,0.3306,0,0,0,0,0,0,0.3069,0.3115,0.3132,0.3139,0.3161,0.3201,0.32,0.3222,0.3241,0.3244,0.3283,0.3291,0.3296,0.3315,0.3322,0.3326,0.3349,0.3348,0.3314,0.3308,0.3303,0.3298,0.336,0,0,0,0,0,0.306,0.3072,0.3112,0.3114,0.3124,0.316,0.317,0.3192,0.3217,0.3226,0.3253,0.3276,0.3291,0.3301,0.3318,0.3319,0.3326,0.3315,0.331,0.3306,0.3304,0.3303,0.3298,0.3354,0.3354,0.3354,0,0,0.304,0.3067,0.3073,0.3105,0.3125,0.3136,0.3168,0.3179,0.3187,0.3228,0.3239,0.3259,0.3287,0.3291,0.3295,0.3307,0.3291,0.3303,0.33,0.33,0.3301,0.3296,0.3291,0.3353,0.3353,0.3353,0,0,0.301,0.3032,0.3035,0.3054,0.3083,0.3107,0.3107,0.3143,0.3158,0.3169,0.3199,0.321,0.3237,0.3254,0.3267,0.3241,0.3263,0.3246,0.3219,0.3217,0.3213,0.3209,0.3198,0.3193,0.3244,0.3244,0.3244,0,0.2982,0.3,0.3034,0.3042,0.3054,0.3092,0.3094,0.3111,0.3144,0.3151,0.3165,0.3197,0.3219,0.3227,0.322,0.323,0.3231,0.3241,0.3211,0.3208,0.3205,0.3194,0.319,0.3241,0.3242,0.3242,0.3242,0,0.2963,0.2975,0.2974,0.3004,0.3016,0.3021,0.3055,0.3063,0.3084,0.3106,0.3115,0.3142,0.3164,0.3168,0.3189,0.3178,0.3184,0.3204,0.3227,0.3196,0.3187,0.3183,0.3238,0.3239,0.3239,0.324,0,0,0.2906,0.2953,0.2952,0.2965,0.2999,0.3008,0.3015,0.3035,0.304,0.3062,0.3067,0.3088,0.3105,0.3119,0.3142,0.3141,0.3115,0.316,0.3162,0.3149,0.3102,0.3086,0.3081,0.3131,0.313,0.313,0.3099,0,0.288,0.2893,0.2922,0.2926,0.2935,0.297,0.2975,0.2996,0.3016,0.3027,0.305,0.3063,0.3086,0.3094,0.3095,0.3118,0.3106,0.3121,0.3134,0.3134,0.3124,0.3076,0.306,0.303,0.3096,0.3095,0.3095,0,0.2852,0.2869,0.2873,0.2904,0.2909,0.2913,0.2933,0.2944,0.2967,0.2982,0.2996,0.3021,0.3028,0.305,0.3059,0.3068,0.3075,0.3088,0.3087,0.3088,0.3112,0.3074,0.3021,0.3016,0.309,0.309,0.3091,0,0.2806,0.2831,0.2836,0.2847,0.2884,0.2885,0.2901,0.2925,0.2935,0.2952,0.2958,0.2976,0.2986,0.2999,0.3027,0.3041,0.3032,0.3057,0.3043,0.3042,0.3039,0.3038,0.2984,0.3046,0.3046,0.3047,0.3047,0,0.2773,0.2773,0.2816,0.2819,0.282,0.2853,0.2853,0.2872,0.2893,0.2899,0.2931,0.2936,0.2974,0.2983,0.3005,0.3008,0.3013,0.3024,0.3029,0.302,0.3018,0.3024,0.3026,0.3045,0.3046,0.3046,0.3046,0,0.2723,0.2752,0.2759,0.2792,0.2801,0.28,0.2828,0.2832,0.2853,0.286,0.2864,0.2898,0.291,0.2939,0.296,0.2975,0.297,0.2982,0.2962,0.2965,0.2949,0.2949,0.2895,0.2888,0.2956,0.2956,0.2955,0,0.2699,0.2699,0.2733,0.2739,0.2752,0.2762,0.2772,0.2804,0.2813,0.2838,0.2838,0.2852,0.2865,0.2883,0.2909,0.2924,0.2935,0.2915,0.2937,0.2926,0.2931,0.293,0.2929,0.2909,0.2908,0.2908,0.2907,0,0.2652,0.2665,0.2678,0.2694,0.2704,0.2719,0.2736,0.2739,0.2775,0.2783,0.2795,0.2805,0.2824,0.2837,0.2856,0.2871,0.2894,0.29,0.2897,0.2886,0.2873,0.2877,0.2946,0.2901,0.2901,0.2902,0.2902,0.2902,0.2613,0.2614,0.2637,0.2648,0.2664,0.2678,0.2682,0.2703,0.2714,0.2732,0.275,0.276,0.2781,0.2808,0.2822,0.2829,0.2841,0.2838,0.2837,0.2835,0.2829,0.2873,0.2833,0.2833,0.2834,0.2834,0.2834,0,0.2565,0.2581,0.2592,0.2613,0.2622,0.2643,0.2661,0.2667,0.2675,0.2693,0.2704,0.2717,0.2729,0.2755,0.277,0.277,0.2781,0.2773,0.2772,0.2774,0.2819,0.2819,0.2764,0.2764,0.2764,0.2764,0.2764,0.2764,0.2542,0.2544,0.256,0.2569,0.2586,0.2595,0.2603,0.2615,0.263,0.2642,0.2652,0.2669,0.2689,0.2705,0.2717,0.2724,0.2727,0.2714,0.2725,0.2765,0.2772,0.2778,0.2778,0.2715,0.2715,0.268,0.2679,0.2679]},{"header":{"parameterUnit":"m.s-1","parameterCategory":1,"la1":30.2991,"la2":30.254,"lo1":-89.0895,"lo2":-89.0444,"dy":0.0017,"dx":0.0017,"nx":28,"ny":28,"refTime":"2024-03-16T03:00:00:Z","depth":0,"parameterNumber":3,"parameterNumberName":"V-component_of_WINDS"},"data":[0,0,0,0,0,0,0,0,0,0,0,0,0,0,0,0,0,0,0,0,0,0,0,0,0,0,0,0,0,0,0,0,0,0,0,0,0,0,0,0,0,0,0,0,0,0,0,0,0,0,0,0,0,0,0,0,0,0,3.6337,3.6337,0,3.6328,3.6328,3.6328,3.6332,3.6332,3.6333,3.6333,3.6321,3.6321,3.632,0,0,0,0,0,0,0,0,0,0,0,0,0,3.6354,3.6354,3.6337,3.6337,3.6337,3.6328,3.6328,3.6328,3.6332,3.6332,3.6333,3.6333,3.6321,3.6321,3.632,0,0,0,0,0,0,0,0,0,0,0,0,0,3.6346,3.6354,3.6337,3.6338,3.6338,3.6328,3.6328,3.6328,3.6332,3.6332,3.6333,3.6333,3.6321,3.6321,3.632,3.6308,0,0,3.6317,3.6317,0,0,0,0,0,0,0,0,3.6347,3.6346,3.6338,3.6338,3.6338,3.6332,3.633,3.6321,3.6332,3.6334,3.6333,3.6333,3.6324,3.6323,3.6321,3.6308,3.6307,3.6317,3.6317,3.6317,3.6316,0,0,0,0,0,0,0,3.6347,3.6346,3.6333,3.6338,3.6337,3.6338,3.6337,3.6328,3.6327,3.6334,3.6334,3.6333,3.6324,3.6321,3.632,3.6307,3.6317,3.6317,3.6316,3.6316,3.6284,3.6283,0,0,0,0,0,0,3.6348,3.6346,3.6334,3.6333,3.6343,3.6337,3.6336,3.6333,3.6327,3.6327,3.6333,3.6334,3.6323,3.6321,3.632,3.6306,3.6317,3.6316,3.6315,3.6284,3.6284,3.6283,0,0,0,0,0,0,3.6349,3.6347,3.6334,3.634,3.6338,3.6337,3.6333,3.6333,3.633,3.6327,3.6326,3.6331,3.6323,3.6321,3.6311,3.6305,3.6315,3.6315,3.6285,3.6284,3.6283,3.6277,0,0,0,0,0,0,3.6349,3.6347,3.6343,3.634,3.6338,3.6326,3.6333,3.6332,3.6329,3.633,3.6324,3.6324,3.6323,3.6312,3.631,3.6304,3.6314,3.6285,3.6284,3.6284,3.6278,3.6276,3.6275,0,0,0,0,0,3.635,3.6341,3.6343,3.6341,3.6333,3.6326,3.6324,3.6325,3.6329,3.6324,3.6322,3.6324,3.6307,3.6311,3.6309,3.6303,3.6285,3.6285,3.6284,3.6278,3.6277,3.6275,0,0,0,0,0,0,3.6342,3.634,3.6343,3.6333,3.6329,3.6326,3.6321,3.6323,3.6317,3.6318,3.6318,3.6317,3.6306,3.6304,3.6309,3.6291,3.6296,3.6295,3.6293,3.6292,3.629,3.6291,3.6313,0,0,0,0,0,3.634,3.6335,3.6333,3.6324,3.6323,3.6322,3.6319,3.632,3.6316,3.6314,3.6311,3.6307,3.63,3.6296,3.629,3.6278,3.6276,3.6272,3.6271,3.627,3.6269,3.6262,3.626,3.628,3.628,3.628,0,0,3.6334,3.6332,3.6329,3.6323,3.632,3.6315,3.6321,3.6314,3.631,3.6313,3.6303,3.6301,3.6296,3.6285,3.628,3.6283,3.6263,3.6269,3.6268,3.6267,3.6261,3.6259,3.6257,3.628,3.628,3.628,0,0,3.632,3.6319,3.6311,3.6309,3.6306,3.6306,3.6304,3.6301,3.63,3.6291,3.6293,3.6288,3.6277,3.6273,3.627,3.6256,3.6257,3.6254,3.6246,3.624,3.6238,3.6237,3.6232,3.623,3.6253,3.6253,3.6252,0,3.6313,3.6305,3.6307,3.6301,3.6298,3.6302,3.6294,3.6292,3.6286,3.6284,3.6287,3.6274,3.627,3.6259,3.6256,3.6253,3.625,3.6254,3.6239,3.6237,3.6236,3.6231,3.6229,3.6252,3.6252,3.6252,3.6252,0,3.6296,3.6291,3.6285,3.6281,3.6277,3.627,3.6271,3.6267,3.6268,3.6268,3.6258,3.6255,3.6248,3.6246,3.6246,3.6234,3.6236,3.6239,3.6244,3.6234,3.6229,3.6227,3.6252,3.6252,3.6252,3.6252,0,0,3.6276,3.6274,3.6272,3.627,3.6268,3.6263,3.6256,3.6251,3.6247,3.6244,3.6237,3.6229,3.6232,3.6228,3.6228,3.6223,3.6212,3.6227,3.6226,3.6223,3.6198,3.6195,3.6193,3.6213,3.6213,3.6213,3.6198,0,3.6262,3.625,3.6253,3.6241,3.6236,3.624,3.6234,3.6232,3.6231,3.6226,3.6225,3.6219,3.6223,3.6221,3.6216,3.6214,3.6207,3.6216,3.6206,3.6206,3.6207,3.619,3.6187,3.6173,3.6196,3.6196,3.6196,0,3.6243,3.624,3.6228,3.6227,3.6225,3.6219,3.6215,3.621,3.6207,3.6207,3.6204,3.6206,3.6198,3.6204,3.6194,3.62,3.6196,3.6195,3.6194,3.6193,3.6199,3.6187,3.6169,3.6167,3.6193,3.6193,3.6193,0,3.6229,3.6222,3.6214,3.6213,3.6211,3.6207,3.6206,3.6203,3.62,3.6196,3.6194,3.6189,3.6186,3.6182,3.6182,3.6186,3.6171,3.6177,3.617,3.617,3.6165,3.6165,3.6145,3.6164,3.6164,3.6164,3.6165,0,3.6212,3.6205,3.6208,3.6203,3.6195,3.6197,3.6189,3.6188,3.6186,3.6181,3.6184,3.6179,3.618,3.6174,3.6174,3.6165,3.6164,3.6163,3.6163,3.6162,3.6162,3.6159,3.616,3.6164,3.6164,3.6164,3.6164,0,3.6194,3.6196,3.6188,3.6188,3.6187,3.6181,3.6181,3.6176,3.6176,3.6169,3.6168,3.6168,3.6162,3.6162,3.6154,3.6154,3.6143,3.6144,3.6144,3.6144,3.6137,3.6137,3.6113,3.611,3.6132,3.6132,3.6132,0,3.6183,3.6177,3.6177,3.6174,3.6173,3.6168,3.6166,3.6168,3.6165,3.6162,3.6157,3.6152,3.6147,3.6137,3.6136,3.613,3.6131,3.6123,3.613,3.613,3.613,3.613,3.6129,3.6121,3.6121,3.6121,3.6121,0,3.6162,3.6164,3.616,3.6157,3.6154,3.6151,3.6149,3.6146,3.6148,3.6144,3.6139,3.6136,3.6129,3.6123,3.6118,3.6116,3.6118,3.6119,3.6117,3.6115,3.6115,3.6115,3.614,3.6119,3.6119,3.6119,3.6119,3.612,3.6147,3.6142,3.6141,3.6137,3.6136,3.6134,3.6129,3.613,3.6125,3.6121,3.6123,3.6116,3.6114,3.6107,3.6105,3.61,3.6102,3.6099,3.6098,3.6097,3.6096,3.6117,3.6099,3.6099,3.6099,3.6099,3.6099,0,3.6126,3.6126,3.6122,3.6119,3.6116,3.612,3.6118,3.6114,3.6109,3.6107,3.6103,3.6097,3.6092,3.6091,3.6085,3.6081,3.6082,3.608,3.6079,3.6079,3.6095,3.6097,3.6079,3.6079,3.6079,3.6079,3.6079,3.6079,3.6114,3.6107,3.6108,3.61,3.61,3.6095,3.6093,3.6091,3.6089,3.6082,3.6079,3.6079,3.6077,3.6072,3.6067,3.6067,3.6064,3.6061,3.6061,3.6076,3.6078,3.608,3.6081,3.6061,3.6061,3.6046,3.6046,3.6046]}]]